[[{"header":{"parameterUnit":"m.s-1","parameterCategory":1,"la1":30.2991,"la2":30.254,"lo1":-89.0895,"lo2":-89.0444,"dy":0.0017,"dx":0.0017,"nx":28,"ny":28,"refTime":"2024-08-28T03:00:00:Z","depth":0,"parameterNumber":2,"parameterNumberName":"U-component_of_WINDS"},"data":[0,0,0,0,0,0,0,0,0,0,0,0,0,0,0,0,0,0,0,0,0,0,0,0,0,0,0,0,0,0,0,0,0,0,0,0,0,0,0,0,0,0,0,0,0,0,0,0,0,0,0,0,0,0,0,0,0,0,-1.8081,-1.8082,0,-1.8161,-1.8162,-1.8162,-1.8168,-1.8167,-1.8166,-1.8165,-1.8247,-1.8249,-1.8252,0,0,0,0,0,0,0,0,0,0,0,0,0,-1.7935,-1.7937,-1.8081,-1.8082,-1.8083,-1.816,-1.8162,-1.8163,-1.8168,-1.8167,-1.8166,-1.8165,-1.8246,-1.8249,-1.8253,0,0,0,0,0,0,0,0,0,0,0,0,0,-1.8005,-1.7938,-1.8081,-1.8095,-1.8097,-1.816,-1.8162,-1.8163,-1.8168,-1.8167,-1.8166,-1.8164,-1.8244,-1.8249,-1.8253,-1.8307,0,0,-1.8267,-1.8269,0,0,0,0,0,0,0,0,-1.8001,-1.801,-1.8092,-1.8094,-1.8097,-1.8153,-1.814,-1.8211,-1.8169,-1.8141,-1.8165,-1.8164,-1.8216,-1.8223,-1.8241,-1.8311,-1.8315,-1.8267,-1.827,-1.8272,-1.8273,0,0,0,0,0,0,0,-1.7996,-1.8007,-1.8112,-1.8093,-1.8096,-1.8098,-1.8106,-1.8153,-1.8185,-1.8144,-1.8144,-1.8154,-1.8217,-1.8237,-1.8243,-1.8316,-1.8267,-1.8271,-1.8274,-1.8276,-1.8436,-1.8437,0,0,0,0,0,0,-1.7988,-1.8003,-1.811,-1.8115,-1.8044,-1.8102,-1.8111,-1.8136,-1.8185,-1.8191,-1.8155,-1.8154,-1.823,-1.8238,-1.8246,-1.8313,-1.8272,-1.8276,-1.8279,-1.8434,-1.8436,-1.8438,0,0,0,0,0,0,-1.7985,-1.7998,-1.8107,-1.8059,-1.8073,-1.8105,-1.8134,-1.8139,-1.8158,-1.8193,-1.8199,-1.8168,-1.8229,-1.824,-1.8292,-1.8316,-1.8278,-1.8282,-1.8432,-1.8435,-1.8437,-1.8447,0,0,0,0,0,0,-1.7981,-1.7997,-1.8017,-1.8059,-1.8075,-1.8151,-1.8135,-1.8141,-1.8165,-1.8165,-1.8207,-1.8213,-1.8229,-1.8286,-1.8297,-1.8321,-1.8286,-1.843,-1.8434,-1.8436,-1.8444,-1.8449,-1.8453,0,0,0,0,0,-1.7976,-1.8016,-1.8018,-1.8031,-1.8102,-1.8153,-1.8162,-1.8179,-1.8167,-1.8188,-1.8212,-1.8212,-1.8312,-1.8291,-1.8304,-1.833,-1.8429,-1.8433,-1.8436,-1.8442,-1.8448,-1.8453,0,0,0,0,0,0,-1.7975,-1.8022,-1.8024,-1.808,-1.8112,-1.8154,-1.818,-1.8184,-1.8221,-1.8218,-1.8238,-1.8248,-1.83,-1.832,-1.8296,-1.8385,-1.8369,-1.8375,-1.837,-1.8375,-1.838,-1.8373,-1.8289,0,0,0,0,0,-1.7982,-1.8019,-1.8058,-1.8103,-1.812,-1.8147,-1.817,-1.8181,-1.8215,-1.8229,-1.8256,-1.8289,-1.8328,-1.8353,-1.8391,-1.8448,-1.8458,-1.8473,-1.8477,-1.848,-1.8485,-1.8517,-1.8524,-1.845,-1.8449,-1.8449,0,0,-1.7995,-1.8025,-1.8047,-1.8104,-1.813,-1.8169,-1.8159,-1.82,-1.8228,-1.8235,-1.8286,-1.8308,-1.8346,-1.8402,-1.8428,-1.842,-1.8508,-1.8485,-1.8487,-1.849,-1.8522,-1.8529,-1.8535,-1.8452,-1.8451,-1.8451,0,0,-1.8039,-1.8066,-1.8106,-1.8133,-1.8174,-1.8193,-1.8202,-1.8244,-1.8258,-1.831,-1.8316,-1.8352,-1.8418,-1.8446,-1.8468,-1.8526,-1.8527,-1.8538,-1.8559,-1.8591,-1.8597,-1.8602,-1.8622,-1.8629,-1.8542,-1.8542,-1.8542,0,-1.805,-1.8108,-1.8127,-1.8168,-1.8193,-1.8202,-1.8244,-1.8269,-1.832,-1.8337,-1.8328,-1.8413,-1.844,-1.8502,-1.8516,-1.8535,-1.8547,-1.8532,-1.8594,-1.86,-1.8605,-1.8625,-1.8632,-1.8543,-1.8543,-1.8543,-1.8543,0,-1.812,-1.816,-1.8189,-1.8238,-1.8266,-1.8308,-1.8333,-1.836,-1.8369,-1.8389,-1.8442,-1.8475,-1.852,-1.8536,-1.8545,-1.86,-1.8595,-1.859,-1.8574,-1.8613,-1.8631,-1.8639,-1.8545,-1.8544,-1.8544,-1.8544,0,0,-1.8163,-1.8224,-1.8234,-1.8257,-1.8303,-1.8335,-1.8378,-1.8422,-1.8444,-1.848,-1.8516,-1.8574,-1.857,-1.8596,-1.8609,-1.8636,-1.868,-1.8629,-1.863,-1.8637,-1.8743,-1.8745,-1.8753,-1.8682,-1.8684,-1.8685,-1.874,0,-1.8212,-1.8287,-1.8306,-1.837,-1.8408,-1.8418,-1.8455,-1.8488,-1.8509,-1.8544,-1.8567,-1.8607,-1.86,-1.8616,-1.8644,-1.8668,-1.8701,-1.8665,-1.8716,-1.8717,-1.8704,-1.8763,-1.8765,-1.8815,-1.8747,-1.8748,-1.8749,0,-1.8277,-1.8315,-1.8383,-1.8426,-1.8442,-1.8475,-1.8518,-1.8552,-1.859,-1.8603,-1.8633,-1.8643,-1.8689,-1.8672,-1.8735,-1.871,-1.8732,-1.8748,-1.875,-1.8755,-1.8734,-1.8768,-1.8831,-1.8838,-1.8761,-1.876,-1.8759,0,-1.8302,-1.8369,-1.8419,-1.8438,-1.8489,-1.8512,-1.8535,-1.8572,-1.8598,-1.8636,-1.8653,-1.8696,-1.8719,-1.8752,-1.8774,-1.876,-1.8836,-1.882,-1.8848,-1.8847,-1.8861,-1.886,-1.8928,-1.8878,-1.8878,-1.8878,-1.8878,0,-1.8353,-1.8394,-1.843,-1.8461,-1.8507,-1.853,-1.8576,-1.8599,-1.8632,-1.8667,-1.8679,-1.8713,-1.874,-1.8777,-1.8795,-1.8845,-1.8855,-1.8867,-1.8871,-1.8865,-1.8864,-1.8879,-1.8876,-1.888,-1.8879,-1.8879,-1.8879,0,-1.8387,-1.8413,-1.8468,-1.8512,-1.8524,-1.8557,-1.8595,-1.8626,-1.8647,-1.8692,-1.8704,-1.8738,-1.8783,-1.8808,-1.8864,-1.8877,-1.8932,-1.8934,-1.8918,-1.892,-1.8946,-1.8942,-1.9025,-1.9037,-1.8979,-1.898,-1.898,0,-1.8417,-1.8449,-1.8497,-1.8522,-1.8545,-1.8585,-1.8612,-1.8636,-1.8663,-1.871,-1.8735,-1.8781,-1.8818,-1.8889,-1.8919,-1.8962,-1.8966,-1.8992,-1.8972,-1.8966,-1.8966,-1.8963,-1.8966,-1.8995,-1.8995,-1.8995,-1.8996,0,-1.8468,-1.848,-1.8518,-1.8561,-1.8593,-1.8628,-1.8663,-1.8683,-1.8713,-1.8744,-1.879,-1.8819,-1.8877,-1.8922,-1.8969,-1.8992,-1.8999,-1.9002,-1.9011,-1.9004,-1.8994,-1.8999,-1.8927,-1.9,-1.8999,-1.8999,-1.8999,-1.8999,-1.8501,-1.853,-1.8569,-1.8611,-1.8641,-1.8673,-1.8704,-1.873,-1.8769,-1.8818,-1.883,-1.8879,-1.8918,-1.8981,-1.9006,-1.9045,-1.904,-1.9052,-1.9055,-1.9058,-1.9058,-1.8989,-1.9053,-1.9053,-1.9053,-1.9053,-1.9053,0,-1.8552,-1.8578,-1.8617,-1.8666,-1.87,-1.8704,-1.8744,-1.8772,-1.8814,-1.885,-1.8887,-1.894,-1.8985,-1.9019,-1.9065,-1.9089,-1.9094,-1.91,-1.9098,-1.9104,-1.906,-1.9048,-1.9096,-1.9096,-1.9096,-1.9096,-1.9096,-1.9096,-1.8582,-1.8632,-1.8649,-1.8713,-1.874,-1.8787,-1.8809,-1.884,-1.8869,-1.8928,-1.8965,-1.8987,-1.9023,-1.9071,-1.9113,-1.9122,-1.9138,-1.9144,-1.9153,-1.9111,-1.9106,-1.9102,-1.9091,-1.9147,-1.9147,-1.9194,-1.9194,-1.9194]},{"header":{"parameterUnit":"m.s-1","parameterCategory":1,"la1":30.2991,"la2":30.254,"lo1":-89.0895,"lo2":-89.0444,"dy":0.0017,"dx":0.0017,"nx":28,"ny":28,"refTime":"2024-08-28T03:00:00:Z","depth":0,"parameterNumber":3,"parameterNumberName":"V-component_of_WINDS"},"data":[0,0,0,0,0,0,0,0,0,0,0,0,0,0,0,0,0,0,0,0,0,0,0,0,0,0,0,0,0,0,0,0,0,0,0,0,0,0,0,0,0,0,0,0,0,0,0,0,0,0,0,0,0,0,0,0,0,0,2.5236,2.5236,0,2.5223,2.5223,2.5222,2.5201,2.5201,2.5201,2.52,2.5187,2.5187,2.5187,0,0,0,0,0,0,0,0,0,0,0,0,0,2.5242,2.5242,2.5236,2.5236,2.5235,2.5223,2.5223,2.5222,2.5201,2.5201,2.5201,2.52,2.5187,2.5187,2.5187,0,0,0,0,0,0,0,0,0,0,0,0,0,2.5236,2.5242,2.5236,2.5223,2.5222,2.5223,2.5223,2.5222,2.5202,2.5201,2.52,2.52,2.5187,2.5187,2.5187,2.5199,0,0,2.5187,2.5187,0,0,0,0,0,0,0,0,2.5236,2.5235,2.5225,2.5224,2.5223,2.5213,2.522,2.5214,2.5202,2.5209,2.52,2.52,2.5196,2.5195,2.5194,2.5198,2.5197,2.5187,2.5187,2.5187,2.5187,0,0,0,0,0,0,0,2.5236,2.5236,2.5231,2.5225,2.5224,2.5219,2.5217,2.5219,2.5206,2.5209,2.5207,2.5206,2.5195,2.5194,2.5194,2.5197,2.5187,2.5187,2.5187,2.5187,2.5209,2.521,0,0,0,0,0,0,2.5239,2.5236,2.5231,2.523,2.5228,2.5219,2.5217,2.5217,2.5206,2.5204,2.5206,2.5205,2.5194,2.5194,2.5193,2.5205,2.5187,2.5187,2.5187,2.5209,2.521,2.521,0,0,0,0,0,0,2.5239,2.5238,2.5231,2.5233,2.5232,2.5219,2.5219,2.5217,2.5216,2.5204,2.5202,2.5208,2.5194,2.5193,2.5197,2.5204,2.5187,2.5187,2.5208,2.5209,2.521,2.523,0,0,0,0,0,0,2.5239,2.5239,2.5243,2.5233,2.5232,2.5236,2.522,2.5217,2.5216,2.5214,2.5205,2.5203,2.5193,2.5197,2.5197,2.5204,2.5187,2.5207,2.5209,2.521,2.5229,2.5232,2.5234,0,0,0,0,0,2.524,2.5249,2.5243,2.5243,2.5236,2.5236,2.5235,2.5224,2.5216,2.522,2.5213,2.5203,2.5204,2.5198,2.5198,2.5205,2.5207,2.5208,2.5209,2.5227,2.5231,2.5234,0,0,0,0,0,0,2.526,2.5248,2.5241,2.5247,2.5243,2.5233,2.5237,2.5229,2.5226,2.5224,2.5211,2.5209,2.5215,2.5211,2.5204,2.5215,2.5204,2.5205,2.5218,2.5221,2.5224,2.5224,2.5187,0,0,0,0,0,2.5265,2.5266,2.5255,2.5262,2.526,2.5249,2.5249,2.5241,2.5236,2.5234,2.5227,2.5222,2.5222,2.5221,2.522,2.5229,2.5226,2.5233,2.5236,2.5238,2.5239,2.5243,2.5245,2.5215,2.5215,2.5214,0,0,2.5276,2.5269,2.5271,2.5266,2.5262,2.5263,2.5248,2.525,2.525,2.5234,2.5237,2.5232,2.5226,2.5232,2.5235,2.5229,2.5247,2.524,2.5242,2.5241,2.5244,2.5247,2.525,2.5215,2.5215,2.5215,0,0,2.5296,2.5291,2.5296,2.5292,2.5286,2.5279,2.528,2.5271,2.5267,2.527,2.5258,2.5259,2.5258,2.5254,2.5252,2.5271,2.5261,2.5271,2.5285,2.5288,2.5291,2.5293,2.5298,2.5301,2.5273,2.5273,2.5273,0,2.5309,2.531,2.53,2.5302,2.53,2.5286,2.5291,2.5288,2.5282,2.5281,2.5274,2.5273,2.5268,2.5273,2.5277,2.5277,2.5277,2.5271,2.5291,2.5293,2.5295,2.53,2.5303,2.5274,2.5274,2.5273,2.5273,0,2.5328,2.5329,2.5333,2.5327,2.5326,2.533,2.532,2.532,2.5313,2.5306,2.531,2.5304,2.5301,2.5302,2.5294,2.5305,2.5302,2.5294,2.5282,2.5299,2.5304,2.5306,2.5275,2.5275,2.5275,2.5274,0,0,2.5358,2.5347,2.5349,2.5346,2.5338,2.5339,2.5342,2.5339,2.5339,2.5336,2.5338,2.5338,2.533,2.5328,2.5321,2.5324,2.5338,2.5315,2.5315,2.5319,2.5349,2.5354,2.5357,2.5333,2.5333,2.5333,2.5349,0,2.5375,2.5379,2.537,2.5377,2.5377,2.5365,2.5368,2.5363,2.5358,2.5357,2.5351,2.5351,2.5342,2.534,2.5343,2.5336,2.5344,2.5335,2.5334,2.5334,2.5334,2.536,2.5365,2.538,2.5351,2.5352,2.5352,0,2.5395,2.5393,2.5399,2.5391,2.5391,2.5394,2.539,2.5391,2.5386,2.5381,2.5379,2.5371,2.5373,2.5363,2.5366,2.536,2.5359,2.5356,2.5356,2.5354,2.5343,2.5357,2.5385,2.5386,2.5355,2.5355,2.5354,0,2.5415,2.5414,2.5417,2.5415,2.5407,2.5409,2.5405,2.54,2.5399,2.5396,2.5395,2.5393,2.5392,2.539,2.5381,2.5375,2.5385,2.5374,2.5381,2.5381,2.5382,2.5382,2.5408,2.5384,2.5384,2.5384,2.5384,0,2.5434,2.5439,2.5426,2.5428,2.5433,2.5423,2.5427,2.5423,2.5418,2.5419,2.5408,2.5409,2.5398,2.5398,2.5391,2.5394,2.5394,2.539,2.5388,2.539,2.539,2.5388,2.5386,2.5385,2.5384,2.5384,2.5384,0,2.5457,2.5449,2.5452,2.5443,2.5441,2.5445,2.5438,2.5439,2.5434,2.5435,2.5435,2.5425,2.5425,2.5416,2.5414,2.5409,2.5414,2.5411,2.5416,2.5414,2.5421,2.542,2.5446,2.5448,2.5424,2.5424,2.5424,0,2.5469,2.5471,2.5464,2.5464,2.5461,2.5461,2.546,2.545,2.5449,2.5444,2.5446,2.5445,2.5443,2.5443,2.5435,2.5434,2.5429,2.5438,2.5429,2.5431,2.5428,2.5427,2.5427,2.544,2.544,2.5441,2.5441,0,2.549,2.5486,2.5485,2.5483,2.5482,2.5479,2.5476,2.5477,2.5467,2.5466,2.5466,2.5464,2.5462,2.546,2.5457,2.5453,2.5445,2.5444,2.5445,2.5447,2.5449,2.5447,2.542,2.5443,2.5443,2.5443,2.5443,2.5443,2.5507,2.5509,2.5503,2.5503,2.5499,2.5497,2.5498,2.5493,2.5492,2.5489,2.5484,2.5484,2.5479,2.5474,2.5471,2.5471,2.5466,2.5468,2.5468,2.5468,2.5469,2.5451,2.547,2.547,2.547,2.547,2.547,0,2.5527,2.5523,2.5522,2.5519,2.5518,2.5511,2.5508,2.5507,2.5507,2.5504,2.5502,2.5501,2.55,2.5493,2.5491,2.5492,2.5488,2.5492,2.5491,2.549,2.5474,2.5473,2.5495,2.5495,2.5495,2.5495,2.5495,2.5495,2.5537,2.554,2.5535,2.5536,2.5533,2.5532,2.5531,2.5529,2.5525,2.5525,2.5524,2.552,2.5515,2.5512,2.5511,2.5509,2.5508,2.5512,2.5509,2.5494,2.5491,2.5489,2.5487,2.5512,2.5513,2.5525,2.5525,2.5525]}]]